When you browse on this site, cookies collect data to enhance your experience and personalize the content and advertising you see.
Visit our Privacy Policy to learn more. By continuing to use the site, you agree to this use of cookies and data.
  • In Czech Republic
  • List of Countries
  • For 7 days
  • Water Temperature
  • Weather Map
  • Weather Widgets
  • user-avatar
    Login

    Hourly Weather Stende

    Today, 11 November, Monday

    Time Temperature Precipitation Wind Pressure Humidity
    00:00 +6°C° 0 mm 2 mps 751 mmHg 88%
    01:00 +6°C° 0 mm 2 mps 751 mmHg 89%
    02:00 +5°C° 0 mm 2 mps 751 mmHg 89%
    03:00 +5°C° 0 mm 2 mps 750 mmHg 90%
    04:00 +4°C° 0 mm 2 mps 750 mmHg 91%
    05:00 +4°C° 0 mm 2 mps 750 mmHg 92%
    06:00 +4°C° 0 mm 2 mps 750 mmHg 92%
    07:00 +4°C° 0 mm 2 mps 750 mmHg 91%
    08:00 +4°C° 0 mm 2 mps 751 mmHg 90%
    09:00 +5°C° 0 mm 2 mps 751 mmHg 88%
    10:00 +5°C° 0 mm 2 mps 751 mmHg 86%
    11:00 +6°C° 0 mm 2 mps 751 mmHg 85%
    12:00 +6°C° 0.1 mm 2 mps 751 mmHg 83%
    13:00 +6°C° 0.1 mm 2 mps 751 mmHg 82%
    14:00 +5°C° 0 mm 3 mps 751 mmHg 80%
    15:00 +5°C° 0 mm 2 mps 751 mmHg 83%
    16:00 +5°C° 0 mm 2 mps 751 mmHg 86%
    17:00 +4°C° 0 mm 2 mps 751 mmHg 89%
    18:00 +5°C° 0 mm 1 mps 751 mmHg 89%
    19:00 +4°C° 0 mm 1 mps 751 mmHg 90%
    20:00 +4°C° 0 mm 1 mps 752 mmHg 90%
    21:00 +4°C° 0 mm 1 mps 752 mmHg 90%
    22:00 +4°C° 0 mm 1 mps 752 mmHg 90%
    23:00 +4°C° 0 mm 1 mps 752 mmHg 90%

    Tomorrow, 12 November, Tuesday

    Time Temperature Precipitation Wind Pressure Humidity
    00:00 +3°C° 0 mm 1 mps 753 mmHg 90%
    01:00 +3°C° 0 mm 1 mps 753 mmHg 91%
    02:00 +2°C° 0 mm 2 mps 753 mmHg 91%
    03:00 +2°C° 0 mm 2 mps 753 mmHg 91%
    04:00 +2°C° 0 mm 2 mps 753 mmHg 91%
    05:00 +2°C° 0 mm 2 mps 753 mmHg 92%
    06:00 +1°C° 0 mm 3 mps 753 mmHg 92%
    07:00 +1°C° 0 mm 3 mps 753 mmHg 92%
    08:00 +1°C° 0 mm 3 mps 753 mmHg 93%
    09:00 +1°C° 0 mm 4 mps 753 mmHg 88%
    10:00 +1°C° 0 mm 5 mps 753 mmHg 84%
    11:00 +2°C° 0 mm 5 mps 753 mmHg 80%
    12:00 +3°C° 0 mm 6 mps 752 mmHg 79%
    13:00 +3°C° 0 mm 6 mps 752 mmHg 78%
    14:00 +3°C° 0 mm 6 mps 752 mmHg 77%
    15:00 +4°C° 0 mm 6 mps 751 mmHg 78%
    16:00 +4°C° 0 mm 6 mps 751 mmHg 80%
    17:00 +4°C° 0 mm 6 mps 750 mmHg 81%
    18:00 +5°C° 0 mm 5 mps 750 mmHg 82%
    19:00 +5°C° 0 mm 5 mps 750 mmHg 82%
    20:00 +5°C° 0 mm 5 mps 750 mmHg 83%
    21:00 +5°C° 0 mm 4 mps 750 mmHg 84%
    22:00 +5°C° 0 mm 4 mps 750 mmHg 86%
    23:00 +5°C° 0 mm 4 mps 750 mmHg 87%

    Day after tomorrow, 13 November, Wednesday

    Time Temperature Precipitation Wind Pressure Humidity
    00:00 +5°C° 0 mm 4 mps 750 mmHg 88%
    01:00 +5°C° 0 mm 4 mps 749 mmHg 89%
    02:00 +5°C° 0 mm 4 mps 749 mmHg 89%
    03:00 +5°C° 0.1 mm 4 mps 749 mmHg 90%
    04:00 +7°C° 0.1 mm 3 mps 748 mmHg 92%
    05:00 +7°C° 0.1 mm 3 mps 748 mmHg 93%
    06:00 +7°C° 0.2 mm 3 mps 748 mmHg 93%
    07:00 +6°C° 0.2 mm 4 mps 747 mmHg 93%
    08:00 +6°C° 0.2 mm 4 mps 747 mmHg 93%
    09:00 +6°C° 0.6 mm 4 mps 747 mmHg 94%
    10:00 +7°C° 0.6 mm 3 mps 747 mmHg 94%
    11:00 +7°C° 0.6 mm 3 mps 747 mmHg 94%
    12:00 +7°C° 1.2 mm 3 mps 746 mmHg 95%
    13:00 +8°C° 1.2 mm 3 mps 746 mmHg 95%
    14:00 +8°C° 1.2 mm 3 mps 746 mmHg 95%
    15:00 +8°C° 0.9 mm 3 mps 745 mmHg 95%
    16:00 +8°C° 0.9 mm 3 mps 745 mmHg 96%
    17:00 +8°C° 0.9 mm 3 mps 744 mmHg 96%
    18:00 +8°C° 1.7 mm 3 mps 744 mmHg 96%
    19:00 +9°C° 1.7 mm 2 mps 744 mmHg 96%
    20:00 +9°C° 1.7 mm 2 mps 744 mmHg 96%
    21:00 +9°C° 0.1 mm 2 mps 744 mmHg 96%
    22:00 +8°C° 0.1 mm 2 mps 745 mmHg 96%
    23:00 +8°C° 0.1 mm 2 mps 745 mmHg 97%

    14 November, Thursday

    Time Temperature Precipitation Wind Pressure Humidity
    00:00 +8°C° 0 mm 2 mps 746 mmHg 97%
    01:00 +9°C° 0 mm 1 mps 746 mmHg 97%
    02:00 +9°C° 0 mm 1 mps 746 mmHg 97%
    03:00 +9°C° 0 mm 1 mps 746 mmHg 97%
    04:00 +9°C° 0 mm 1 mps 746 mmHg 97%
    05:00 +8°C° 0 mm 2 mps 745 mmHg 97%
    06:00 +9°C° 0.2 mm 3 mps 745 mmHg 94%
    07:00 +8°C° 0.2 mm 4 mps 745 mmHg 92%
    08:00 +9°C° 0.2 mm 5 mps 744 mmHg 89%
    09:00 +10°C° 0.1 mm 5 mps 744 mmHg 87%
    10:00 +10°C° 0.1 mm 5 mps 745 mmHg 84%
    11:00 +12°C° 0.1 mm 5 mps 745 mmHg 81%
    12:00 +12°C° 0 mm 5 mps 745 mmHg 79%
    13:00 +12°C° 0 mm 5 mps 746 mmHg 78%
    14:00 +12°C° 0 mm 5 mps 747 mmHg 76%
    15:00 +12°C° 0 mm 4 mps 747 mmHg 80%
    16:00 +11°C° 0 mm 4 mps 748 mmHg 83%
    17:00 +10°C° 0 mm 4 mps 749 mmHg 87%
    18:00 +10°C° 0 mm 3 mps 750 mmHg 88%
    19:00 +9°C° 0 mm 3 mps 751 mmHg 89%
    20:00 +8°C° 0 mm 2 mps 752 mmHg 90%
    21:00 +8°C° 0 mm 2 mps 752 mmHg 89%
    22:00 +9°C° 0 mm 1 mps 753 mmHg 89%
    23:00 +9°C° 0 mm 1 mps 754 mmHg 88%

    15 November, Friday

    Time Temperature Precipitation Wind Pressure Humidity
    00:00 +9°C° 0 mm 1 mps 754 mmHg 89%
    01:00 +9°C° 0 mm 1 mps 754 mmHg 90%
    02:00 +8°C° 0 mm 1 mps 754 mmHg 90%
    03:00 +8°C° 0 mm 1 mps 755 mmHg 92%
    04:00 +6°C° 0 mm 2 mps 755 mmHg 93%
    05:00 +6°C° 0 mm 2 mps 755 mmHg 95%
    06:00 +6°C° 0 mm 2 mps 755 mmHg 95%
    07:00 +6°C° 0 mm 2 mps 755 mmHg 95%
    08:00 +6°C° 0 mm 2 mps 755 mmHg 95%
    09:00 +6°C° 0 mm 2 mps 755 mmHg 94%
    10:00 +7°C° 0 mm 3 mps 755 mmHg 92%
    11:00 +7°C° 0 mm 3 mps 756 mmHg 91%
    12:00 +7°C° 0 mm 3 mps 755 mmHg 91%
    13:00 +7°C° 0 mm 3 mps 755 mmHg 92%
    14:00 +7°C° 0 mm 3 mps 755 mmHg 92%
    15:00 +7°C° 0.1 mm 3 mps 755 mmHg 94%
    16:00 +7°C° 0.1 mm 3 mps 755 mmHg 95%
    17:00 +7°C° 0.1 mm 2 mps 755 mmHg 96%
    18:00 +7°C° 0 mm 2 mps 755 mmHg 95%
    19:00 +7°C° 0 mm 2 mps 755 mmHg 95%
    20:00 +7°C° 0 mm 2 mps 755 mmHg 94%
    21:00 +7°C° 0 mm 2 mps 755 mmHg 93%
    22:00 +7°C° 0 mm 2 mps 755 mmHg 93%
    23:00 +7°C° 0 mm 2 mps 755 mmHg 92%

    16 November, Saturday

    Time Temperature Precipitation Wind Pressure Humidity
    00:00 +6°C° 0 mm 2 mps 755 mmHg 91%
    01:00 +6°C° 0 mm 2 mps 755 mmHg 91%
    02:00 +6°C° 0 mm 2 mps 755 mmHg 91%
    03:00 +4°C° 0 mm 3 mps 755 mmHg 90%
    04:00 +4°C° 0 mm 3 mps 755 mmHg 90%
    05:00 +4°C° 0 mm 3 mps 755 mmHg 90%
    06:00 +4°C° 0 mm 3 mps 755 mmHg 90%
    07:00 +4°C° 0 mm 3 mps 755 mmHg 89%
    08:00 +4°C° 0 mm 4 mps 755 mmHg 89%
    09:00 +4°C° 0 mm 4 mps 755 mmHg 88%
    10:00 +5°C° 0 mm 4 mps 755 mmHg 87%
    11:00 +5°C° 0 mm 4 mps 755 mmHg 86%
    12:00 +6°C° 0 mm 4 mps 755 mmHg 85%
    13:00 +6°C° 0 mm 4 mps 755 mmHg 85%
    14:00 +7°C° 0 mm 4 mps 755 mmHg 85%
    15:00 +6°C° 0 mm 4 mps 755 mmHg 87%
    16:00 +6°C° 0 mm 4 mps 754 mmHg 89%
    17:00 +6°C° 0 mm 4 mps 754 mmHg 91%
    18:00 +6°C° 0 mm 4 mps 755 mmHg 90%
    19:00 +6°C° 0 mm 4 mps 755 mmHg 90%
    20:00 +6°C° 0 mm 4 mps 755 mmHg 90%
    21:00 +6°C° 0 mm 4 mps 755 mmHg 90%
    22:00 +6°C° 0 mm 4 mps 756 mmHg 90%
    23:00 +6°C° 0 mm 4 mps 756 mmHg 91%
    Show more